• In Belarus
  • List of Countries
  • For 7 days
  • Water Temperature
  • Satellite Maps
  • Weather Map
  • Weather Widgets
  • user-avatar
    Login

    Hourly Weather Saint-Basile-le-Grand

    Today, 24 November, Friday

    Time Temperature Precipitation Wind Pressure Humidity
    00:00 -1°C° 0.1 mm 4 mps 756 mmHg 82%
    01:00 -1°C° 0.1 mm 4 mps 756 mmHg 83%
    02:00 -1°C° 0 mm 4 mps 756 mmHg 84%
    03:00 -1°C° 0 mm 4 mps 756 mmHg 84%
    04:00 -2°C° 0 mm 4 mps 756 mmHg 84%
    05:00 -2°C° 0 mm 4 mps 756 mmHg 85%
    06:00 -2°C° 0 mm 4 mps 756 mmHg 86%
    07:00 -2°C° 0 mm 3 mps 756 mmHg 87%
    08:00 -2°C° 0 mm 4 mps 756 mmHg 84%
    09:00 -1°C° 0 mm 4 mps 756 mmHg 80%
    10:00 0°C° 0 mm 4 mps 756 mmHg 77%
    11:00 0°C° 0 mm 4 mps 756 mmHg 78%
    12:00 +2°C° 0 mm 3 mps 755 mmHg 79%
    13:00 +2°C° 0 mm 3 mps 754 mmHg 79%
    14:00 +2°C° 0.1 mm 3 mps 754 mmHg 79%
    15:00 +2°C° 0.1 mm 3 mps 753 mmHg 79%
    16:00 +2°C° 0.1 mm 3 mps 753 mmHg 79%
    17:00 +2°C° 0.1 mm 3 mps 752 mmHg 79%
    18:00 +1°C° 0.1 mm 4 mps 752 mmHg 78%
    19:00 +1°C° 0.1 mm 4 mps 752 mmHg 78%
    20:00 +1°C° 0.1 mm 4 mps 752 mmHg 77%
    21:00 +1°C° 0.1 mm 4 mps 751 mmHg 76%
    22:00 +1°C° 0.1 mm 4 mps 751 mmHg 75%
    23:00 +1°C° 0 mm 4 mps 751 mmHg 75%

    Tomorrow, 25 November, Saturday

    Time Temperature Precipitation Wind Pressure Humidity
    00:00 +1°C° 0 mm 4 mps 751 mmHg 75%
    01:00 +1°C° 0 mm 4 mps 750 mmHg 74%
    02:00 +1°C° 0 mm 4 mps 750 mmHg 75%
    03:00 +1°C° 0 mm 4 mps 750 mmHg 75%
    04:00 +1°C° 0 mm 4 mps 749 mmHg 76%
    05:00 +1°C° 0.1 mm 4 mps 749 mmHg 76%
    06:00 +1°C° 0.1 mm 4 mps 749 mmHg 77%
    07:00 +1°C° 0.1 mm 4 mps 749 mmHg 78%
    08:00 +1°C° 0.8 mm 4 mps 749 mmHg 79%
    09:00 +2°C° 0.8 mm 5 mps 749 mmHg 81%
    10:00 +2°C° 0.8 mm 5 mps 749 mmHg 83%
    11:00 +2°C° 0.5 mm 5 mps 749 mmHg 84%
    12:00 +4°C° 0.5 mm 4 mps 749 mmHg 86%
    13:00 +4°C° 0.5 mm 4 mps 749 mmHg 87%
    14:00 +4°C° 0.1 mm 4 mps 749 mmHg 89%
    15:00 +4°C° 0.1 mm 3 mps 749 mmHg 91%
    16:00 +4°C° 0.1 mm 3 mps 750 mmHg 92%
    17:00 +4°C° 0.1 mm 3 mps 750 mmHg 93%
    18:00 +4°C° 0.1 mm 2 mps 750 mmHg 94%
    19:00 +4°C° 0.1 mm 2 mps 751 mmHg 94%
    20:00 +4°C° 0.1 mm 2 mps 751 mmHg 94%
    21:00 +4°C° 0.1 mm 2 mps 751 mmHg 93%
    22:00 +3°C° 0.1 mm 2 mps 751 mmHg 93%
    23:00 +3°C° 0.1 mm 2 mps 751 mmHg 91%

    Day after tomorrow, 26 November, Sunday

    Time Temperature Precipitation Wind Pressure Humidity
    00:00 +3°C° 0.1 mm 2 mps 751 mmHg 90%
    01:00 +1°C° 0.1 mm 3 mps 752 mmHg 88%
    02:00 +1°C° 0 mm 3 mps 752 mmHg 87%
    03:00 0°C° 0 mm 3 mps 752 mmHg 86%
    04:00 0°C° 0 mm 3 mps 753 mmHg 84%
    05:00 -1°C° 0 mm 3 mps 753 mmHg 84%
    06:00 -1°C° 0 mm 3 mps 754 mmHg 83%
    07:00 -2°C° 0 mm 3 mps 754 mmHg 83%
    08:00 -2°C° 0 mm 3 mps 755 mmHg 79%
    09:00 -2°C° 0 mm 4 mps 755 mmHg 74%
    10:00 -2°C° 0 mm 4 mps 755 mmHg 70%
    11:00 -2°C° 0 mm 4 mps 755 mmHg 69%
    12:00 -2°C° 0 mm 5 mps 755 mmHg 67%
    13:00 -2°C° 0 mm 5 mps 754 mmHg 66%
    14:00 -2°C° 0 mm 5 mps 754 mmHg 68%
    15:00 -2°C° 0 mm 4 mps 754 mmHg 70%
    16:00 -3°C° 0 mm 4 mps 754 mmHg 72%
    17:00 -3°C° 0.1 mm 4 mps 755 mmHg 75%
    18:00 -3°C° 0.1 mm 4 mps 755 mmHg 78%
    19:00 -3°C° 0.1 mm 4 mps 755 mmHg 81%
    20:00 -2°C° 0.1 mm 3 mps 754 mmHg 83%
    21:00 -2°C° 0.1 mm 2 mps 754 mmHg 84%
    22:00 0°C° 0.1 mm 1 mps 754 mmHg 86%
    23:00 0°C° 0.2 mm 1 mps 754 mmHg 87%

    27 November, Monday

    Time Temperature Precipitation Wind Pressure Humidity
    00:00 0°C° 0.2 mm 1 mps 753 mmHg 89%
    01:00 -1°C° 0.2 mm 0 mps 753 mmHg 90%
    02:00 0°C° 0.1 mm 1 mps 754 mmHg 90%
    03:00 -2°C° 0.1 mm 2 mps 754 mmHg 90%
    04:00 -2°C° 0.1 mm 2 mps 754 mmHg 91%
    05:00 -2°C° 0.1 mm 3 mps 755 mmHg 87%
    06:00 -3°C° 0.1 mm 4 mps 756 mmHg 83%
    07:00 -5°C° 0.1 mm 5 mps 757 mmHg 79%
    08:00 -5°C° 0.1 mm 5 mps 757 mmHg 74%
    09:00 -5°C° 0.1 mm 5 mps 758 mmHg 70%
    10:00 -5°C° 0.1 mm 6 mps 759 mmHg 65%
    11:00 -5°C° 0 mm 5 mps 759 mmHg 63%
    12:00 -5°C° 0 mm 5 mps 759 mmHg 62%
    13:00 -5°C° 0 mm 5 mps 760 mmHg 60%
    14:00 -4°C° 0 mm 4 mps 760 mmHg 63%
    15:00 -4°C° 0 mm 4 mps 760 mmHg 66%
    16:00 -5°C° 0 mm 3 mps 761 mmHg 68%
    17:00 -4°C° 0 mm 2 mps 761 mmHg 70%
    18:00 -4°C° 0 mm 2 mps 761 mmHg 71%
    19:00 -3°C° 0 mm 1 mps 762 mmHg 73%
    20:00 -3°C° 0 mm 1 mps 762 mmHg 73%
    21:00 -3°C° 0 mm 1 mps 761 mmHg 74%
    22:00 -3°C° 0 mm 1 mps 761 mmHg 74%
    23:00 -4°C° 0 mm 2 mps 761 mmHg 74%

    28 November, Tuesday

    Time Temperature Precipitation Wind Pressure Humidity
    00:00 -5°C° 0 mm 3 mps 760 mmHg 74%
    01:00 -5°C° 0 mm 3 mps 759 mmHg 73%
    02:00 -4°C° 0 mm 4 mps 758 mmHg 73%
    03:00 -3°C° 0 mm 4 mps 757 mmHg 72%
    04:00 -2°C° 0 mm 5 mps 755 mmHg 71%
    05:00 -1°C° 0 mm 5 mps 755 mmHg 73%
    06:00 0°C° 0 mm 4 mps 754 mmHg 75%
    07:00 0°C° 0 mm 4 mps 753 mmHg 77%
    08:00 +2°C° 0.2 mm 5 mps 752 mmHg 77%
    09:00 +3°C° 0.2 mm 5 mps 752 mmHg 77%
    10:00 +4°C° 0.2 mm 6 mps 751 mmHg 76%
    11:00 +4°C° 0.5 mm 6 mps 751 mmHg 78%
    12:00 +5°C° 0.5 mm 6 mps 751 mmHg 80%
    13:00 +5°C° 0.5 mm 6 mps 750 mmHg 82%
    14:00 +5°C° 0.4 mm 6 mps 750 mmHg 83%
    15:00 +5°C° 0.4 mm 6 mps 751 mmHg 85%
    16:00 +5°C° 0.4 mm 6 mps 751 mmHg 86%
    17:00 +5°C° 0.2 mm 6 mps 751 mmHg 87%
    18:00 +4°C° 0.2 mm 6 mps 751 mmHg 88%
    19:00 +4°C° 0.2 mm 6 mps 751 mmHg 89%
    20:00 +4°C° 0.5 mm 6 mps 751 mmHg 88%
    21:00 +4°C° 0.5 mm 6 mps 751 mmHg 88%
    22:00 +4°C° 0.5 mm 6 mps 751 mmHg 88%
    23:00 +3°C° 0.1 mm 6 mps 752 mmHg 85%

    29 November, Wednesday

    Time Temperature Precipitation Wind Pressure Humidity
    00:00 +2°C° 0.1 mm 6 mps 752 mmHg 83%
    01:00 +2°C° 0.1 mm 6 mps 753 mmHg 80%
    02:00 +1°C° 0 mm 5 mps 754 mmHg 79%
    03:00 0°C° 0 mm 5 mps 755 mmHg 78%
    04:00 -1°C° 0 mm 5 mps 757 mmHg 77%
    05:00 -2°C° 0 mm 5 mps 758 mmHg 74%
    06:00 -5°C° 0 mm 5 mps 759 mmHg 71%
    07:00 -6°C° 0 mm 5 mps 761 mmHg 68%
    08:00 -6°C° 0 mm 5 mps 762 mmHg 65%
    09:00 -6°C° 0 mm 5 mps 763 mmHg 61%
    10:00 -5°C° 0 mm 5 mps 765 mmHg 58%
    11:00 -5°C° 0 mm 5 mps 765 mmHg 57%
    12:00 -5°C° 0 mm 5 mps 765 mmHg 56%
    13:00 -4°C° 0 mm 5 mps 766 mmHg 54%
    14:00 -4°C° 0 mm 4 mps 766 mmHg 57%
    15:00 -4°C° 0 mm 3 mps 767 mmHg 59%
    16:00 -3°C° 0 mm 2 mps 767 mmHg 62%
    17:00 -3°C° 0 mm 2 mps 768 mmHg 63%
    18:00 -4°C° 0 mm 2 mps 768 mmHg 65%
    19:00 -2°C° 0 mm 1 mps 769 mmHg 66%
    20:00 -2°C° 0 mm 1 mps 769 mmHg 67%
    21:00 -2°C° 0 mm 1 mps 769 mmHg 67%
    22:00 -2°C° 0 mm 1 mps 769 mmHg 68%
    23:00 -4°C° 0 mm 2 mps 768 mmHg 68%
    Show more